Boeing Field King County International Airport
KBFI : now visible

Airfield :











YOU CAN JOIN US ON...

 
LOGIN :

Register | Disclaimer

   EN    FR    IT 

 









Legend :    VFR   Marginal VFR   IFR   Intensive IFR   Very Intensive IFR
Visi :
Ceiling :
>= 8 km
>= 3000ft
5 to 8 km
1000 to 3000 ft
1500m to 5 km
500 to 1000 ft
800 to 1500m
200 to 500 ft
< 800m
< 200 ft
Symbols :   Thunderstorms  Fog  Heavy snow  Heavy precipitations  Wind > 20 kt







- Airport Elevation : 21 ft
- IATA code : BFI


KBFI - Boeing Field King County International

CURRENT METAR :
  • 162253Z 19009KT 10SM SCT030 BKN090 20/09 A2982 RMK AO2 SLP096 T02000089

EXPIRED METARs :
  • 162153Z 24006KT 10SM SCT025 BKN085 19/09 A2981 RMK AO2 SLP096 T01890089
  • 162053Z 10SM FEW025 SCT070 19/09 A2982 RMK AO2 SLP097 T01940094 58002

TAF KBFI
Valid from the 16 at 18:00 until the 17 at 18:00 UTC


161729Z 1618/1718 15004KT P6SM SCT060 BKN080
FM162100 20005KT P6SM VCSH SCT050 BKN100
FM170600 16007KT P6SM OVC050
FM171200 16008KT P6SM -RA SCT025 OVC040
No reported NOTAMs for that airfield.



MET'MAP, your aeronautical weather chart ! - Copyright ORBIFLY December 2007 - Disclaimer

ORBIFLY MET'MAP TEAM :

Programming & Development : Alexandra Zaïnal
Concept & Development : Baudouin d'Aumeries
Co-Development & Prog : Marc-Olivier Méhu
Technical & hardware support : Manuel Goepfert

Contact : metmap@orbifly.com




SOURCES & CREDITS :

   NOAA       Earth
Advisory